Weather History for Naples, FL

Change the Weather History Date:

Thursday, January 19, 2012

  Actual Average Record
Temperature  
Mean Temperature 70 °F 64 °F  
Max Temperature 76 °F 75 °F 86 °F (1990)
Min Temperature 63 °F 54 °F 29 °F (1981)
Degree Days  
Heating Degree Days 0 4  
Month to date heating degree days 72 70  
Since 1 July heating degree days 97 148  
Cooling Degree Days 5 3  
Month to date cooling degree days 20 57  
Year to date cooling degree days 24 57  
Growing Degree Days 16 (Base 50)    
Moisture  
Dew Point 49 °F    
Average Humidity 59    
Maximum Humidity 93    
Minimum Humidity 25    
Precipitation  
Precipitation 0.00 in 0.05 in 0.25 in (1986)
Month to date precipitation 0.02 1.00  
Year to date precipitation 0.02 1.00  
Snow  
Snow 0.00 in - - ()
Month to date snowfall 0.0  
Since 1 July snowfall 0.0  
Snow Depth 0.00 in    
Sea Level Pressure  
Sea Level Pressure 30.10 in    
Wind  
Wind Speed 7 mph (NNE)    
Max Wind Speed 12 mph    
Max Gust Speed 15 mph    
Visibility 10 miles    
Events      
T = Trace of Precipitation, MM = Missing Value Source: NWS Daily Summary

Daily Weather History Graph

Daily Weather History Graph

Search for Another Location

Airport:

Trip Planner

Search our weather history database for the weather conditions in past years. The results will help you decide how hot, cold, wet, or windy it might be!

Date:

Astronomy

Jan. 19, 2012 Rise Set
Actual Time 7:15 AM EST 5:59 PM EST
Civil Twilight 6:51 AM EST 6:24 PM EST
Nautical Twilight 6:22 AM EST 6:52 PM EST
Astronomical Twilight 5:55 AM EST 7:20 PM EST
Moon 3:45 AM EST (1/19) 2:36 PM EST (1/19)
Length of Visible Light 11h 33m
Length of Day
10h 44m
Waning Crescent, 16% of the Moon is Illuminated
Jan 19
Waning Crescent
Jan 23
New
Jan 30
First Quarter
Feb 7
Full
Feb 14
Last Quarter

Hourly Weather History & Observations

Time (EST) Temp. Dew Point Humidity Pressure Visibility Wind Dir Wind Speed Gust Speed Precip Events Conditions
12:53 AM - - N/A% 30.06 in 10.0 mi Calm Calm - N/A   Mostly Cloudy
1:53 AM - - N/A% 30.05 in 10.0 mi WNW 4.6 mph - N/A   Mostly Cloudy
2:53 AM 66.0 °F 62.1 °F 87% 30.04 in 10.0 mi WNW 4.6 mph - N/A   Mostly Cloudy
3:53 AM 66.0 °F 62.1 °F 87% 30.02 in 10.0 mi Calm Calm - N/A   Mostly Cloudy
4:53 AM 64.9 °F 62.1 °F 90% 30.03 in 10.0 mi North 6.9 mph - N/A   Scattered Clouds
5:53 AM 64.4 °F 62.6 °F 94% 30.06 in 10.0 mi North 8.1 mph - N/A   Mostly Cloudy
6:23 AM 64.4 °F 62.6 °F 94% 30.08 in 8.0 mi North 4.6 mph - N/A   Overcast
6:46 AM 62.6 °F 60.8 °F 94% 30.08 in 10.0 mi North 4.6 mph - N/A   Scattered Clouds
6:53 AM 63.0 °F 61.0 °F 93% 30.09 in 6.0 mi North 4.6 mph - N/A   Mostly Cloudy
7:16 AM 62.6 °F 60.8 °F 94% 30.10 in 10.0 mi North 6.9 mph - N/A   Scattered Clouds
7:53 AM 62.1 °F 59.0 °F 90% 30.10 in 10.0 mi NNE 4.6 mph - N/A   Clear
8:53 AM 63.0 °F 57.9 °F 84% 30.13 in 10.0 mi NE 10.4 mph - N/A   Clear
9:53 AM 66.0 °F 55.0 °F 68% 30.16 in 10.0 mi NE 9.2 mph - N/A   Clear
10:53 AM 68.0 °F 53.6 °F 60% 30.16 in 10.0 mi NNE 9.2 mph - N/A   Clear
11:53 AM 71.1 °F 39.9 °F 32% 30.14 in 10.0 mi NNE 15.0 mph 18.4 mph N/A   Clear
12:53 PM 73.0 °F 41.0 °F 31% 30.11 in 10.0 mi NNE 12.7 mph 18.4 mph N/A   Clear
1:50 PM 73.4 °F 39.2 °F 29% 30.09 in 10.0 mi NNE 6.9 mph - N/A   Clear
2:50 PM 73.4 °F 39.2 °F 29% 30.08 in 10.0 mi ENE 9.2 mph - N/A   Clear
3:50 PM 75.2 °F 37.4 °F 25% 30.08 in 10.0 mi ENE 10.4 mph - N/A   Clear
3:53 PM 75.9 °F 39.0 °F 26% 30.08 in 10.0 mi NE 12.7 mph - N/A   Unknown
4:50 PM 75.2 °F 39.2 °F 27% 30.09 in 10.0 mi ENE 8.1 mph - N/A   Clear
4:53 PM 73.9 °F 39.0 °F 28% 30.09 in 10.0 mi ENE 6.9 mph - N/A   Clear
5:53 PM 71.1 °F 37.0 °F 29% 30.10 in 10.0 mi East 6.9 mph - N/A   Clear
6:53 PM 66.9 °F 36.0 °F 32% 30.11 in 10.0 mi East 3.5 mph - N/A   Clear
7:53 PM 62.1 °F 37.9 °F 41% 30.13 in 10.0 mi ENE 5.8 mph - N/A   Clear
8:53 PM 60.8 °F 39.2 °F 45% 30.14 in 10.0 mi ENE 4.6 mph - N/A   Clear
9:53 PM 57.2 °F 41.0 °F 55% 30.14 in 10.0 mi ENE 5.8 mph - N/A   Clear
10:53 PM 57.9 °F 41.0 °F 53% 30.14 in 10.0 mi NE 4.6 mph - N/A   Clear
11:53 PM 55.0 °F 44.1 °F 67% 30.14 in 10.0 mi ENE 5.8 mph - N/A   Clear